Weather History for KFSD - January, 2013

Change the Weather History Date:

Thursday, January 24, 2013

  Actual Average Record
Temperature  
Mean Temperature 4 °F 17 °F  
Max Temperature 14 °F 27 °F 66 °F (1981)
Min Temperature -6 °F 7 °F -32 °F (1894)
Degree Days  
Heating Degree Days 61 48  
Month to date heating degree days 1149 1170  
Since 1 July heating degree days 4089 4303  
Cooling Degree Days 0 0  
Month to date cooling degree days 0 0  
Year to date cooling degree days 0 0  
Moisture  
Dew Point -5 °F    
Average Humidity 69    
Maximum Humidity 75    
Minimum Humidity 63    
Precipitation  
Precipitation 0.00 in 0.01 in 0.22 in (1956)
Month to date precipitation 0.20 0.43  
Year to date precipitation 0.20 0.43  
Snow  
Snow 0.00 in 0.30 in 2.60 in (1956)
Month to date snowfall 2.0 5.9  
Since 1 July snowfall 15.8 22.8  
Snow Depth 1.00 in    
Sea Level Pressure  
Sea Level Pressure 30.43 in    
Wind  
Wind Speed 12 mph (SE)    
Max Wind Speed 24 mph    
Max Gust Speed 29 mph    
Visibility 10 miles    
Events      
T = Trace of Precipitation, MM = Missing Value Source: NWS Daily Summary

Daily Weather History Graph

Daily Weather History Graph

Search for Another Location

Airport or City:

Trip Planner

Search our weather history database for the weather conditions in past years. The results will help you decide how hot, cold, wet, or windy it might be!

Date:

Astronomy

Jan. 24, 2013 Rise Set
Actual Time 7:50 AM CST 5:28 PM CST
Civil Twilight 7:19 AM CST 5:59 PM CST
Nautical Twilight 6:45 AM CST 6:33 PM CST
Astronomical Twilight 6:11 AM CST 7:07 PM CST
Moon 3:30 PM CST (1/24) 5:50 AM CST (1/24)
Length of Visible Light 10h 39m
Length of Day
9h 37m
Waxing Gibbous, 94% of the Moon is Illuminated
Jan 24
Waxing Gibbous
Jan 26
Full
Feb 3
Last Quarter
Feb 10
New
Feb 17
First Quarter

Hourly Weather History & Observations

Time (CST) Temp. Windchill Dew Point Humidity Pressure Visibility Wind Dir Wind Speed Gust Speed Precip Events Conditions
12:56 AM -5.1 °F -19.1 °F -14.1 °F 65% 30.65 in 10.0 mi NE 6.9 mph - N/A   Clear
1:56 AM -6.0 °F -20.1 °F -14.1 °F 68% 30.66 in 10.0 mi ENE 6.9 mph - N/A   Clear
2:56 AM -5.1 °F - -14.1 °F 65% 30.68 in 10.0 mi Calm Calm - N/A   Clear
3:56 AM -5.1 °F -15.8 °F -14.1 °F 65% 30.66 in 10.0 mi ESE 4.6 mph - N/A   Clear
4:56 AM -6.0 °F -21.5 °F -14.1 °F 68% 30.64 in 10.0 mi ESE 8.1 mph - N/A   Clear
5:56 AM -5.1 °F -22.5 °F -11.9 °F 72% 30.61 in 10.0 mi East 10.4 mph - N/A   Clear
6:56 AM -4.0 °F -19.0 °F -11.0 °F 72% 30.61 in 10.0 mi ESE 8.1 mph - N/A   Clear
7:56 AM -2.9 °F -18.8 °F -11.0 °F 68% 30.62 in 10.0 mi SE 9.2 mph - N/A   Clear
8:56 AM -2.0 °F -19.6 °F -9.9 °F 69% 30.58 in 10.0 mi SE 11.5 mph - N/A   Clear
9:56 AM -0.0 °F -17.1 °F -8.0 °F 69% 30.58 in 10.0 mi SE 11.5 mph - N/A   Clear
10:56 AM 1.9 °F -14.7 °F -7.1 °F 66% 30.55 in 10.0 mi SE 11.5 mph - N/A   Clear
11:56 AM 5.0 °F -13.6 °F -5.1 °F 63% 30.51 in 10.0 mi SSE 16.1 mph - N/A   Clear
12:56 PM 6.1 °F -12.8 °F -4.0 °F 63% 30.44 in 10.0 mi SSE 17.3 mph 24.2 mph N/A   Clear
1:56 PM 7.0 °F -12.6 °F -2.0 °F 67% 30.39 in 10.0 mi SSE 19.6 mph 24.2 mph N/A   Clear
2:56 PM 8.1 °F -9.6 °F -0.9 °F 67% 30.32 in 10.0 mi SSE 16.1 mph - N/A   Overcast
3:56 PM 9.0 °F -8.5 °F -0.0 °F 67% 30.30 in 10.0 mi SSE 16.1 mph 26.5 mph N/A   Clear
4:56 PM 10.0 °F -8.6 °F -0.0 °F 64% 30.27 in 10.0 mi SSE 19.6 mph 26.5 mph N/A   Clear
5:56 PM 10.9 °F -4.7 °F 1.0 °F 64% 30.25 in 10.0 mi SSE 13.8 mph 21.9 mph N/A   Mostly Cloudy
6:56 PM 12.0 °F -2.0 °F 3.0 °F 67% 30.24 in 10.0 mi SSE 11.5 mph - N/A   Partly Cloudy
7:56 PM 12.9 °F -2.2 °F 3.0 °F 65% 30.24 in 10.0 mi South 13.8 mph 18.4 mph N/A   Mostly Cloudy
8:56 PM 14.0 °F 0.5 °F 3.9 °F 64% 30.23 in 10.0 mi South 11.5 mph - N/A   Overcast
9:56 PM 14.0 °F -2.0 °F 3.9 °F 64% 30.21 in 10.0 mi South 16.1 mph 23.0 mph N/A   Overcast
10:56 PM 14.0 °F -2.0 °F 3.9 °F 64% 30.18 in 10.0 mi SSW 16.1 mph 24.2 mph N/A   Overcast
11:56 PM 14.0 °F 1.2 °F 3.9 °F 64% 30.18 in 10.0 mi SSW 10.4 mph - N/A   Clear